Kezdőlap
METAR-TAF:

METAR-TAF

Repülőterek :

Brenner Field

Falls City, Nebraska, Amerikai Egyesült Államok

földrajzi szélesség: 40-04-44N, földrajzi hosszúság: 095-35-31W, magasság: 300 m

Jelenlegi meteorológiai megfigyelések

A jelentés 29 perccel ezelõtt készült, 01:53 UTC
Nyugati szél 9 kt
Hőmérséklet 19°C
Páratartalom 83%
Légköri nyomás 1010 hPa
Látótávolság: 16.1 km
Borult 1800 lábon

METAR: KFNB 270153Z AUTO 26009KT 10SM OVC018 19/16 A2982 RMK AO2 SLP093 T01890161

Idő: 21:22 (02:22 UTC)


TAF: hiányzik

Meteorológiai megfigyelések és előrejelzések több, mint 4000 repülőtéren (METAR és TAF jelentéseket).

A térképen piros és sárga pontok jelzik az elérhető meteorológiai állomásokat.

Mozgassa az egeret a pont fölött, hogy megjelenjen az állomás neve.

Azután kattintson az időjárási megfigyelések és előrejelzések megtekintéséhez.

A térkép megváltoztatása: kattintson a fekete keresztel jelölt zöld gombra ráközelítéshez, a vonallal jelölt zöld gombra távolításhoz, vagy a zöld nyilakra a szomszédos térképek eléréséhez.


METAR-TAF: